PDT,Max TemperatureF,Mean TemperatureF,Min TemperatureF,Max Dew PointF,MeanDew PointF,Min DewpointF,Max Humidity, Mean Humidity, Min Humidity, Max Sea Level PressureIn, Mean Sea Level PressureIn, Min Sea Level PressureIn, Max VisibilityMiles, Mean VisibilityMiles, Min VisibilityMiles, Max Wind SpeedMPH, Mean Wind SpeedMPH, Max Gust SpeedMPH,PrecipitationIn, CloudCover, Events, WindDirDegrees
2012-10-1,97,84,70,35,29,25,25,15,8,30.09,30.00,29.92,10,10,10,9,3,,0.00,0,,318
2012-10-2,99,84,69,36,30,25,27,15,8,29.96,29.88,29.79,10,10,10,8,4,,0.00,0,,267
2012-10-3,98,82,68,36,29,24,29,16,8,29.92,29.85,29.81,10,10,10,17,6,24,0.00,0,,271
2012-10-4,91,78,66,32,30,27,25,17,10,30.00,29.92,29.88,10,10,10,13,7,,0.00,0,,298
2012-10-5,88,76,66,40,34,31,31,22,14,30.01,29.94,29.89,10,10,10,6,2,,0.00,0,,355
2012-10-6,89,78,69,39,31,24,32,20,10,29.95,29.88,29.81,10,10,10,9,4,,0.00,0,,30
2012-10-7,84,74,63,31,25,16,27,17,8,29.99,29.91,29.86,10,10,10,10,5,18,0.00,0,,197
2012-10-8,89,75,61,35,26,13,36,19,7,29.96,29.88,29.81,10,10,10,14,5,20,0.00,0,,206
2012-10-9,88,74,61,31,27,18,31,16,8,29.93,29.87,29.81,10,10,10,13,6,24,0.00,0,,161
2012-10-10,84,73,63,59,44,29,87,40,20,29.94,29.88,29.82,10,10,7,18,4,30,0.11,3,Rain,197
2012-10-11,64,57,50,58,54,46,89,82,73,29.95,29.88,29.83,10,8,1,18,9,25,1.72,7,Rain,17
2012-10-12,66,59,52,50,46,41,86,62,39,30.11,30.02,29.89,10,10,10,14,4,,0.00,1,,317
2012-10-13,73,63,54,54,47,43,77,58,40,30.25,30.17,30.11,10,10,10,10,4,,0.00,0,,67
2012-10-14,82,69,57,53,47,40,78,48,24,30.27,30.17,30.09,10,10,10,9,4,,0.00,0,,306
2012-10-15,82,70,57,51,45,39,70,42,21,30.09,30.01,29.94,10,10,10,10,3,,0.00,0,,312
2012-10-16,86,73,62,50,43,38,52,36,19,29.96,29.88,29.76,10,10,10,12,5,,0.00,0,,309
2012-10-17,84,74,62,48,37,21,49,30,10,30.04,29.95,29.84,10,10,10,10,5,,0.00,0,,1
2012-10-18,82,70,57,39,28,17,44,24,9,30.16,30.08,30.02,10,10,10,8,4,,0.00,0,,294
2012-10-19,84,70,57,40,33,26,43,29,13,30.07,29.97,29.87,10,10,10,7,3,,0.00,0,,317
2012-10-20,84,70,55,41,35,29,55,30,14,29.87,29.77,29.68,10,10,10,10,4,,0.00,0,,162
2012-10-21,79,72,66,46,41,37,39,33,26,29.76,29.72,29.68,10,10,10,21,14,32,0.00,0,,200
2012-10-22,79,71,64,41,36,31,40,28,20,29.80,29.76,29.72,10,10,10,28,16,40,0.00,0,,207
2012-10-23,73,65,57,39,28,15,46,27,11,29.85,29.78,29.73,10,10,10,24,19,32,0.00,0,,211
2012-10-24,72,62,53,31,25,14,41,25,12,30.05,29.92,29.78,10,10,10,22,12,25,0.00,0,,309
2012-10-25,70,61,53,26,20,16,34,21,13,30.25,30.13,30.07,10,10,10,14,5,23,0.00,0,,7
2012-10-26,66,58,51,21,17,9,31,21,11,30.35,30.25,30.12,10,10,10,15,8,16,0.00,0,,357
2012-10-27,75,63,51,30,19,14,33,21,11,30.16,30.09,30.02,10,10,10,12,4,,0.00,0,,329
2012-10-28,78,64,52,33,26,20,38,25,12,30.13,30.07,30.01,10,10,10,7,3,,0.00,0,,300
2012-10-29,79,64,51,35,30,23,50,31,13,30.20,30.12,30.07,10,10,10,6,2,,0.00,0,,318
2012-10-30,80,66,53,34,30,23,47,29,13,30.16,30.09,30.01,10,10,10,7,3,,0.00,0,,311
2012-10-31,79,65,51,36,31,25,52,31,14,30.11,30.02,29.95,10,10,10,6,4,,0.00,0,,304